Tracking 23439 objects as of 16-Jun-2021
HD Live streaming from Space Station
objects crossing your sky now

ARIANE 5 DEB (SYLDA)

Track ARIANE 5 DEB (SYLDA) now!


NORAD ID: 27833
Int'l Code: 2003-028D
Perigee: 582.6 km
Apogee: 35,714.8 km
Inclination: 6.9 °
Period: 636.8 minutes
Semi major axis: 24519 km
RCS: 16.2807 m2 (large)
Launch date: June 11, 2003
Source: France (FR)
Launch site: FRENCH GUIANA (FRGUI)

Note: This is SATELLITE DEBRIS
aabbcc
Your satellite tracking list
Your tracking list is empty




NASA's NSSDC Master Catalog

Two Line Element Set (TLE):
1 27833U 03028D   21166.84983734 -.00000092  00000-0 -19765-3 0  9992
2 27833   6.8804  83.1950 7164072  36.1540  88.0295  2.26115167148717
Source of the keplerian elements: AFSPC